Location: A�t �Alizem
(31.2076°N, 8.7872°W)
Time: 16:15:58
(UTC+00:00)

PSLV R/B - Pass Details

Date: 27 November 2020
Orbit: 568 x 597 km, 98.2° (Epoch: 25 January)

Event Time Altitude Azimuth Distance (km) Brightness Sun altitude
Exits shadow 18:53:32 - 10° (N) 1,979 6.4 -17.1°
Reaches altitude 10° 18:53:48 10° 10° (N) 1,871 6.3 -17.2°
Maximum altitude 18:57:50 81° 284° (WNW) 580 3.9 -18.0°
Drops below altitude 10° 19:01:52 10° 197° (SSW) 1,861 6.9 -18.8°
Sets 19:04:00 0° 196° (SSW) 2,756 7.8 -19.3°
